Time,TemperatureF,DewpointF,PressureIn,WindDirection,WindDirectionDegrees,WindSpeedMPH,WindSpeedGustMPH,Humidity,HourlyPrecipIn,Conditions,Clouds,dailyrainin,SoftwareType,DateUTC
2013-06-28 00:02:00,46.0,-99.9,30.04,SSW,210,8.0,12.0,-999,-99.99,,,-99.99,,2013-06-28 08:02:00,
2013-06-28 00:11:00,46.0,-99.9,30.04,SW,220,9.0,13.0,-999,-99.99,,,-99.99,,2013-06-28 08:11:00,
2013-06-28 00:33:00,46.0,-99.9,30.04,SW,222,10.0,13.0,-999,-99.99,,,-99.99,,2013-06-28 08:33:00,
2013-06-28 00:43:00,46.0,-99.9,30.05,SW,217,12.0,13.0,-999,-99.99,,,-99.99,,2013-06-28 08:43:00,
2013-06-28 00:52:00,46.0,-99.9,30.05,SW,215,10.0,13.0,-999,-99.99,,,-99.99,,2013-06-28 08:52:00,
2013-06-28 01:02:00,46.0,-99.9,30.05,SW,217,9.0,15.0,-999,-99.99,,,-99.99,,2013-06-28 09:02:00,
2013-06-28 01:11:00,46.0,-99.9,30.05,SSW,210,10.0,13.0,-999,-99.99,,,-99.99,,2013-06-28 09:11:00,
2013-06-28 01:33:00,46.0,-99.9,30.05,SW,220,9.0,12.0,-999,-99.99,,,-99.99,,2013-06-28 09:33:00,
2013-06-28 01:42:00,46.0,-99.9,30.05,SW,220,10.0,13.0,-999,-99.99,,,-99.99,,2013-06-28 09:42:00,
2013-06-28 01:52:00,46.0,-99.9,30.05,SW,220,12.0,14.0,-999,-99.99,,,-99.99,,2013-06-28 09:52:00,
2013-06-28 02:02:00,46.0,-99.9,30.06,SW,220,10.0,14.0,-999,-99.99,,,-99.99,,2013-06-28 10:02:00,
2013-06-28 02:12:00,46.0,-99.9,30.06,SW,222,12.0,14.0,-999,-99.99,,,-99.99,,2013-06-28 10:12:00,
2013-06-28 02:33:00,46.0,-99.9,30.06,SW,227,13.0,15.0,-999,-99.99,,,-99.99,,2013-06-28 10:33:00,
2013-06-28 02:42:00,46.0,-99.9,30.06,SW,230,10.0,15.0,-999,-99.99,,,-99.99,,2013-06-28 10:42:00,
2013-06-28 02:52:00,46.0,-99.9,30.06,SW,230,11.0,13.0,-999,-99.99,,,-99.99,,2013-06-28 10:52:00,
2013-06-28 03:02:00,46.0,-99.9,30.06,WSW,241,12.0,15.0,-999,-99.99,,,-99.99,,2013-06-28 11:02:00,
2013-06-28 03:11:00,46.0,-99.9,30.06,SW,233,12.0,15.0,-999,-99.99,,,-99.99,,2013-06-28 11:11:00,
2013-06-28 03:34:00,46.0,-99.9,30.06,WSW,239,11.0,15.0,-999,-99.99,,,-99.99,,2013-06-28 11:34:00,
2013-06-28 03:43:00,46.0,-99.9,30.06,WSW,237,11.0,13.0,-999,-99.99,,,-99.99,,2013-06-28 11:43:00,
2013-06-28 03:53:00,46.0,-99.9,30.06,WSW,238,10.0,12.0,-999,-99.99,,,-99.99,,2013-06-28 11:53:00,
2013-06-28 04:02:00,46.0,-99.9,30.06,SW,228,10.0,12.0,-999,-99.99,,,-99.99,,2013-06-28 12:02:00,
2013-06-28 04:12:00,46.0,-99.9,30.06,SW,229,10.0,12.0,-999,-99.99,,,-99.99,,2013-06-28 12:12:00,
2013-06-28 04:34:00,46.0,-99.9,30.06,SW,236,8.0,11.0,-999,-99.99,,,-99.99,,2013-06-28 12:34:00,
2013-06-28 04:43:00,46.0,-99.9,30.06,SW,222,8.0,10.0,-999,-99.99,,,-99.99,,2013-06-28 12:43:00,
2013-06-28 04:52:00,46.0,-99.9,30.06,SW,233,8.0,11.0,-999,-99.99,,,-99.99,,2013-06-28 12:52:00,
2013-06-28 05:02:00,45.0,-99.9,30.06,SW,217,8.0,10.0,-999,-99.99,,,-99.99,,2013-06-28 13:02:00,
2013-06-28 05:23:00,46.0,-99.9,30.06,SW,225,9.0,11.0,-999,-99.99,,,-99.99,,2013-06-28 13:23:00,
2013-06-28 05:43:00,45.0,-99.9,30.06,SW,226,9.0,11.0,-999,-99.99,,,-99.99,,2013-06-28 13:43:00,
2013-06-28 06:02:00,45.0,-99.9,30.06,SW,217,8.0,10.0,-999,-99.99,,,-99.99,,2013-06-28 14:02:00,
2013-06-28 06:33:00,45.0,-99.9,30.06,SW,223,6.0,9.0,-999,-99.99,,,-99.99,,2013-06-28 14:33:00,
2013-06-28 06:44:00,45.0,-99.9,30.06,SSW,213,6.0,9.0,-999,-99.99,,,-99.99,,2013-06-28 14:44:00,
2013-06-28 06:53:00,45.0,-99.9,30.06,SSW,213,6.0,10.0,-999,-99.99,,,-99.99,,2013-06-28 14:53:00,
2013-06-28 07:02:00,45.0,-99.9,30.06,SW,219,9.0,10.0,-999,-99.99,,,-99.99,,2013-06-28 15:02:00,
2013-06-28 07:34:00,45.0,-99.9,30.07,SW,221,8.0,10.0,-999,-99.99,,,-99.99,,2013-06-28 15:34:00,
2013-06-28 07:43:00,46.0,-99.9,30.06,SW,228,9.0,10.0,-999,-99.99,,,-99.99,,2013-06-28 15:43:00,
2013-06-28 07:52:00,46.0,-99.9,30.06,SW,235,7.0,10.0,-999,-99.99,,,-99.99,,2013-06-28 15:52:00,
2013-06-28 08:02:00,45.0,-99.9,30.07,SW,223,8.0,10.0,-999,-99.99,,,-99.99,,2013-06-28 16:02:00,
2013-06-28 08:11:00,45.0,-99.9,30.06,SW,221,7.0,10.0,-999,-99.99,,,-99.99,,2013-06-28 16:11:00,
2013-06-28 08:33:00,46.0,-99.9,30.07,SW,226,6.0,8.0,-999,-99.99,,,-99.99,,2013-06-28 16:33:00,
2013-06-28 08:44:00,46.0,-99.9,30.07,SSW,212,6.0,8.0,-999,-99.99,,,-99.99,,2013-06-28 16:44:00,
2013-06-28 08:53:00,46.0,-99.9,30.07,SW,228,6.0,9.0,-999,-99.99,,,-99.99,,2013-06-28 16:53:00,
2013-06-28 09:02:00,46.0,-99.9,30.07,SW,221,6.0,8.0,-999,-99.99,,,-99.99,,2013-06-28 17:02:00,
2013-06-28 09:11:00,46.0,-99.9,30.07,SW,216,5.0,7.0,-999,-99.99,,,-99.99,,2013-06-28 17:11:00,
2013-06-28 09:33:00,46.0,-99.9,30.07,SW,224,5.0,8.0,-999,-99.99,,,-99.99,,2013-06-28 17:33:00,
2013-06-28 09:44:00,46.0,-99.9,30.07,SSW,207,4.0,6.0,-999,-99.99,,,-99.99,,2013-06-28 17:44:00,
2013-06-28 09:52:00,46.0,-99.9,30.07,SSW,213,6.0,8.0,-999,-99.99,,,-99.99,,2013-06-28 17:52:00,
2013-06-28 10:02:00,46.0,-99.9,30.07,SW,220,4.0,6.0,-999,-99.99,,,-99.99,,2013-06-28 18:02:00,
2013-06-28 10:12:00,46.0,-99.9,30.07,SSW,210,4.0,7.0,-999,-99.99,,,-99.99,,2013-06-28 18:12:00,
2013-06-28 10:22:00,46.0,-99.9,30.07,SSW,210,4.0,7.0,-999,-99.99,,,-99.99,,2013-06-28 18:22:00,
2013-06-28 10:43:00,46.0,-99.9,30.08,SSW,211,4.0,6.0,-999,-99.99,,,-99.99,,2013-06-28 18:43:00,
2013-06-28 10:52:00,46.0,-99.9,30.07,South,188,5.0,6.0,-999,-99.99,,,-99.99,,2013-06-28 18:52:00,
2013-06-28 11:01:00,46.0,-99.9,30.07,SSW,195,5.0,6.0,-999,-99.99,,,-99.99,,2013-06-28 19:01:00,
2013-06-28 11:33:00,46.0,-99.9,30.07,South,190,4.0,4.0,-999,-99.99,,,-99.99,,2013-06-28 19:33:00,
2013-06-28 11:43:00,46.0,-99.9,30.07,SSW,194,4.0,5.0,-999,-99.99,,,-99.99,,2013-06-28 19:43:00,
2013-06-28 11:53:00,46.0,-99.9,30.07,South,186,6.0,6.0,-999,-99.99,,,-99.99,,2013-06-28 19:53:00,
2013-06-28 12:02:00,46.0,-99.9,30.07,South,174,4.0,6.0,-999,-99.99,,,-99.99,,2013-06-28 20:02:00,
2013-06-28 12:11:00,47.0,-99.9,30.07,SW,216,4.0,5.0,-999,-99.99,,,-99.99,,2013-06-28 20:11:00,
2013-06-28 12:33:00,47.0,-99.9,30.07,South,179,4.0,6.0,-999,-99.99,,,-99.99,,2013-06-28 20:33:00,
2013-06-28 12:43:00,47.0,-99.9,30.07,South,173,5.0,7.0,-999,-99.99,,,-99.99,,2013-06-28 20:43:00,
2013-06-28 13:02:00,47.0,-99.9,30.08,South,176,4.0,6.0,-999,-99.99,,,-99.99,,2013-06-28 21:02:00,
2013-06-28 13:11:00,47.0,-99.9,30.08,South,187,3.0,5.0,-999,-99.99,,,-99.99,,2013-06-28 21:11:00,
2013-06-28 13:34:00,47.0,-99.9,30.08,South,189,4.0,6.0,-999,-99.99,,,-99.99,,2013-06-28 21:34:00,
2013-06-28 13:43:00,47.0,-99.9,30.08,South,191,4.0,5.0,-999,-99.99,,,-99.99,,2013-06-28 21:43:00,
2013-06-28 13:53:00,47.0,-99.9,30.09,South,186,4.0,5.0,-999,-99.99,,,-99.99,,2013-06-28 21:53:00,
2013-06-28 14:01:00,47.0,-99.9,30.08,South,175,6.0,6.0,-999,-99.99,,,-99.99,,2013-06-28 22:01:00,
2013-06-28 14:11:00,47.0,-99.9,30.08,South,177,6.0,6.0,-999,-99.99,,,-99.99,,2013-06-28 22:11:00,
2013-06-28 14:34:00,47.0,-99.9,30.08,South,182,6.0,7.0,-999,-99.99,,,-99.99,,2013-06-28 22:34:00,
2013-06-28 14:43:00,47.0,-99.9,30.08,South,173,4.0,7.0,-999,-99.99,,,-99.99,,2013-06-28 22:43:00,
2013-06-28 14:53:00,47.0,-99.9,30.08,South,170,5.0,6.0,-999,-99.99,,,-99.99,,2013-06-28 22:53:00,
2013-06-28 15:02:00,47.0,-99.9,30.09,South,173,4.0,6.0,-999,-99.99,,,-99.99,,2013-06-28 23:02:00,
2013-06-28 15:23:00,46.0,-99.9,30.09,South,180,4.0,6.0,-999,-99.99,,,-99.99,,2013-06-28 23:23:00,
2013-06-28 15:34:00,46.0,-99.9,30.09,South,183,6.0,7.0,-999,-99.99,,,-99.99,,2013-06-28 23:34:00,
2013-06-28 15:43:00,46.0,-99.9,30.09,South,183,5.0,7.0,-999,-99.99,,,-99.99,,2013-06-28 23:43:00,
2013-06-28 15:53:00,46.0,-99.9,30.09,South,188,5.0,6.0,-999,-99.99,,,-99.99,,2013-06-28 23:53:00,
2013-06-28 16:02:00,46.0,-99.9,30.09,South,183,4.0,5.0,-999,-99.99,,,-99.99,,2013-06-29 00:02:00,
2013-06-28 16:33:00,46.0,-99.9,30.08,South,181,4.0,5.0,-999,-99.99,,,-99.99,,2013-06-29 00:33:00,
2013-06-28 16:42:00,46.0,-99.9,30.08,South,184,3.0,5.0,-999,-99.99,,,-99.99,,2013-06-29 00:42:00,
2013-06-28 16:52:00,46.0,-99.9,30.08,South,178,5.0,6.0,-999,-99.99,,,-99.99,,2013-06-29 00:52:00,
2013-06-28 17:01:00,46.0,-99.9,30.07,South,179,4.0,6.0,-999,-99.99,,,-99.99,,2013-06-29 01:01:00,
2013-06-28 17:11:00,47.0,-99.9,30.07,South,172,3.0,5.0,-999,-99.99,,,-99.99,,2013-06-29 01:11:00,
2013-06-28 17:32:00,47.0,-99.9,30.06,SSE,164,5.0,7.0,-999,-99.99,,,-99.99,,2013-06-29 01:32:00,
2013-06-28 17:42:00,47.0,-99.9,30.07,South,174,5.0,6.0,-999,-99.99,,,-99.99,,2013-06-29 01:42:00,
2013-06-28 17:52:00,46.0,-99.9,30.07,South,181,4.0,6.0,-999,-99.99,,,-99.99,,2013-06-29 01:52:00,
2013-06-28 18:01:00,47.0,-99.9,30.06,South,178,4.0,6.0,-999,-99.99,,,-99.99,,2013-06-29 02:01:00,
2013-06-28 18:11:00,47.0,-99.9,30.06,South,180,5.0,6.0,-999,-99.99,,,-99.99,,2013-06-29 02:11:00,
2013-06-28 18:31:00,47.0,-99.9,30.06,SW,226,4.0,5.0,-999,-99.99,,,-99.99,,2013-06-29 02:31:00,
2013-06-28 18:41:00,47.0,-99.9,30.06,SW,217,2.0,4.0,-999,-99.99,,,-99.99,,2013-06-29 02:41:00,
2013-06-28 19:01:00,47.0,-99.9,30.06,SSE,155,3.0,4.0,-999,-99.99,,,-99.99,,2013-06-29 03:01:00,
2013-06-28 19:21:00,47.0,-99.9,30.06,SSE,168,3.0,4.0,-999,-99.99,,,-99.99,,2013-06-29 03:21:00,
2013-06-28 19:32:00,47.0,-99.9,30.06,South,170,5.0,7.0,-999,-99.99,,,-99.99,,2013-06-29 03:32:00,
2013-06-28 19:51:00,47.0,-99.9,30.05,SE,125,2.0,4.0,-999,-99.99,,,-99.99,,2013-06-29 03:51:00,
2013-06-28 20:01:00,47.0,-99.9,30.05,SSE,161,3.0,4.0,-999,-99.99,,,-99.99,,2013-06-29 04:01:00,
2013-06-28 20:11:00,47.0,-99.9,30.05,SSE,161,3.0,4.0,-999,-99.99,,,-99.99,,2013-06-29 04:11:00,
2013-06-28 20:25:00,47.0,-99.9,30.05,SSE,157,4.0,5.0,-999,-99.99,,,-99.99,,2013-06-29 04:25:00,
2013-06-28 20:32:00,47.0,-99.9,30.05,SSE,157,4.0,5.0,-999,-99.99,,,-99.99,,2013-06-29 04:32:00,
2013-06-28 20:41:00,47.0,-99.9,30.05,SSE,157,4.0,5.0,-999,-99.99,,,-99.99,,2013-06-29 04:41:00,
2013-06-28 21:01:00,47.0,-99.9,30.05,SSE,152,4.0,4.0,-999,-99.99,,,-99.99,,2013-06-29 05:01:00,
2013-06-28 21:42:00,47.0,-99.9,30.04,SSE,158,5.0,8.0,-999,-99.99,,,-99.99,,2013-06-29 05:42:00,
2013-06-28 21:52:00,47.0,-99.9,30.04,SE,129,3.0,5.0,-999,-99.99,,,-99.99,,2013-06-29 05:52:00,
2013-06-28 22:01:00,47.0,-99.9,30.04,ESE,120,4.0,6.0,-999,-99.99,,,-99.99,,2013-06-29 06:01:00,
2013-06-28 22:12:00,47.0,-99.9,30.04,ESE,115,4.0,6.0,-999,-99.99,,,-99.99,,2013-06-29 06:12:00,
2013-06-28 22:43:00,47.0,-99.9,30.03,ESE,107,3.0,5.0,-999,-99.99,,,-99.99,,2013-06-29 06:43:00,
2013-06-28 22:53:00,47.0,-99.9,30.02,ENE,77,4.0,5.0,-999,-99.99,,,-99.99,,2013-06-29 06:53:00,
2013-06-28 23:02:00,47.0,-99.9,30.02,ENE,70,5.0,6.0,-999,-99.99,,,-99.99,,2013-06-29 07:02:00,
2013-06-28 23:12:00,47.0,-99.9,30.02,East,87,4.0,5.0,-999,-99.99,,,-99.99,,2013-06-29 07:12:00,
2013-06-28 23:33:00,47.0,-99.9,30.02,East,97,3.0,5.0,-999,-99.99,,,-99.99,,2013-06-29 07:33:00,
2013-06-28 23:43:00,47.0,-99.9,30.03,SE,124,4.0,5.0,-999,-99.99,,,-99.99,,2013-06-29 07:43:00,
2013-06-28 23:53:00,47.0,-99.9,30.02,ESE,117,4.0,6.0,-999,-99.99,,,-99.99,,2013-06-29 07:53:00,